Location: Poprad
(49.0500°N, 20.3000°E)
Time: 19:01:09
(UTC+02:00)

ITUPSAT 1 - Pass Details

Date: 29 April 2024
Orbit: 694 x 707 km, 98.5° (Epoch: 20 May)

Event Time Altitude Azimuth Distance (km) Brightness Sun altitude
Rises 00:01:44 0° 5° (N) 3,086 ? -26.0°
Reaches altitude 10° 00:04:19 10° 352° (N) 2,163 ? -26.0°
Maximum altitude 00:08:06 25° 298° (WNW) 1,407 ? -26.1°
Enters shadow 00:10:04 19° 263° (W) 1,642 ? -26.2°
